Weather in Valerianovsk

Russia / Sverdlovsk Oblast     58°45′41″N   59°33′24″E
temp.,
°C
wind,
m/s
gust,
m/s
humid.,
%
clouds,
%
prec.,
mm/h
press.,
hPa
HPBL,
m
18 january, mon
mon1823:00−20w229277 0.1 100624
02:00−22w22890 0.0 101038
05:00−21w23900 0.0 101352
08:00−21w23900 0.0 101560
11:00−19w310880 0.0 1017280
14:00−16w3118345 0.0 1017359
17:00−20w378870 0.0 1018199
20:00−22wsw3491100 0.0 1019104
19 january, tue
tue1923:00−23w229192 0.0 102046
02:00−22w229323 0.0 102024
05:00−22wnw229216 0.0 102120
08:00−23wnw119532 0.0 102120
11:00−21s119322 0.0 102120
14:00−17ese118933 0.0 102092
17:00−20e119766 0.0 101920
20:00−21ese1197100 0.0 101920
20 january, wed
wed2023:00−20e1195100 0.0 101820
02:00−19ene1298100 0.5 1016106
05:00−18ne1298100 1.9 1015125
08:00−17ene1398100 1.3 1014131
11:00−16e1396100 2.0 1013246
14:00−16e1293100 0.6 1011332
17:00−17ene1198100 1.0 100929
20:00−17nne0198100 0.4 100920
21 january, thu
thu2123:00−18nw1198100 0.8 100820
02:00−18nnw0198100 0.5 100720
05:00−18nnw1198100 1.0 100720
08:00−19nnw0198100 0.2 100720
11:00−20w119799 0.2 100937
14:00−18w128894 0.0 1009334
17:00−21w229384 0.0 101026
20:00−22w119487 0.0 101020
22 january, fri
fri2223:00−22w119592 0.0 101020
02:00−22nne0198100 0.0 101020
05:00−25ene22100100 0.1 100988
08:00−27ne2398100 0.2 1010244
11:00−28nne3497100 0.4 1010290
14:00−28nne3595100 0.3 1011341
17:00−29nne2597100 0.4 1013320
20:00−30nne3597100 0.1 1016294